Tracking 29040 objects as of 16-Jun-2024
HD Live streaming from Space Station
objects crossing your sky now

CSO 2

Track CSO 2 now!
10-day predictions


NORAD ID: 47305
Int'l Code: 2020-104A
Perigee: 490.8 km
Apogee: 493.6 km
Inclination: 97.4 °
Period: 94.3 minutes
Semi major axis: 6863 km
RCS: Unknown
Launch date: December 29, 2020
Source: France (FR)
Launch site: FRENCH GUIANA (FRGUI)
Your satellite tracking list
Your tracking list is empty




NASA's NSSDC Master Catalog

Two Line Element Set (TLE):
1 47305U 20104A   24142.06600799 0.00000020  00000-0  75835-6 0    05
2 47305  97.3567  82.5583 0002003 347.5382  12.4616 15.26911813    03
Source of the keplerian elements: McCants